{"data":{"norad_id":59911,"intl_designator":"2024-102C","name":"TIANQI-27","alt_names":[],"object_type":"PAYLOAD","status":"ACTIVE","operator":null,"country":"PRC","launch_date":"2024-05-29","launch_site_code":"YSLA","launch_vehicle":null,"mission":null,"orbit_class":"UNKNOWN","rcs_meters":null,"size_class":null,"mass_kg":null,"dimensions":null,"purposes":[],"wikipedia_slug":null,"has_3d_model":false,"image_url":null,"decayed_at":null,"tle_current":{"epoch":"2026-05-25T02:56:21.374304Z","epoch_age_seconds":64791,"freshness":"FRESH","line1":"1 59911U 24102C   26145.12246961  .00000093  00000+0  15209-3 0  9994","line2":"2 59911  44.9796   4.0718 0006491 142.2182 217.9107 13.99143612101677","mean_motion":13.99143612,"eccentricity":0.0006491,"inclination_deg":44.9796,"raan_deg":4.0718,"arg_perigee_deg":142.2182,"mean_anomaly_deg":217.9107,"bstar":0.00015209,"rev_number":10167,"period_min":102.92009967023,"perigee_km":892.04003777192,"apogee_km":901.48431188067,"semimajor_km":7274.8991748263,"source":"CELESTRAK","updated_at":"2026-05-25T13:38:01.746087Z"}}}